| time (UTC) | temp F | wind direction | speed knots | gust knots | rain 1hr in | rain 24hr in | rain mn in | humidity % | barometer mb |
| 20260507011025 | 43 | 39 | 0.0 | 1.7 | 0.00 | 0.83 | 0.83 | 97 | 1002.7 |
| 20260507010520 | 43 | 71 | 1.7 | 1.7 | 0.00 | 0.83 | 0.83 | 97 | 1002.9 |
| 20260507010017 | 43 | 41 | 1.7 | 2.6 | 0.02 | 0.83 | 0.83 | 97 | 1002.5 |
| 20260507005514 | 43 | 68 | 2.6 | 2.6 | 0.05 | 0.83 | 0.83 | 97 | 1002.4 |
| 20260507005010 | 44 | 72 | 1.7 | 3.5 | 0.05 | 0.83 | 0.83 | 97 | 1002.4 |
| 20260507004508 | 44 | 73 | 1.7 | 2.6 | 0.02 | 0.82 | 0.82 | 97 | 1002.6 |
| 20260507004005 | 43 | 22 | 0.0 | 0.9 | 0.02 | 0.82 | 0.82 | 97 | 1002.6 |
| 20260507003500 | 43 | 326 | 0.0 | 0.0 | 0.02 | 0.82 | 0.82 | 97 | 1002.5 |
| 20260507002955 | 43 | 117 | 0.9 | 1.7 | 0.00 | 0.81 | 0.81 | 97 | 1002.2 |
| 20260507002452 | 43 | 317 | 2.6 | 3.5 | 0.00 | 0.81 | 0.81 | 97 | 1002.4 |
| 20260507001949 | 43 | 60 | 0.0 | 1.7 | 0.00 | 0.81 | 0.81 | 97 | 1002.2 |
| 20260507001445 | 44 | 18 | 0.0 | 3.5 | 0.02 | 0.81 | 0.81 | 97 | 1001.8 |
| 20260507000943 | 43 | 86 | 1.7 | 1.7 | 0.02 | 0.81 | 0.81 | 96 | 1002.1 |
| 20260507000439 | 43 | 105 | 1.7 | 1.7 | 0.05 | 0.81 | 0.81 | 96 | 1002.0 |
| 20260506235935 | 43 | 41 | 2.6 | 4.3 | 0.09 | 0.81 | 0.81 | 96 | 1001.7 |
| 20260506235433 | 44 | 67 | 2.6 | 3.5 | 0.09 | 0.80 | 0.80 | 96 | 1001.7 |
| 20260506234932 | 44 | 82 | 3.5 | 4.3 | 0.09 | 0.80 | 0.80 | 96 | 1001.6 |
| 20260506234431 | 44 | 104 | 2.6 | 2.6 | 0.02 | 0.78 | 0.78 | 96 | 1001.8 |
| 20260506233928 | 44 | 77 | 1.7 | 3.5 | 0.02 | 0.78 | 0.78 | 96 | 1001.7 |
| 20260506233425 | 44 | 56 | 3.5 | 4.3 | 0.02 | 0.78 | 0.78 | 96 | 1001.8 |
| 20260506232921 | 44 | 92 | 2.6 | 3.5 | 0.00 | 0.78 | 0.78 | 96 | 1001.9 |
| 20260506232418 | 44 | 87 | 2.6 | 3.5 | 0.00 | 0.78 | 0.78 | 95 | 1001.8 |
| 20260506231913 | 44 | 94 | 1.7 | 2.6 | 0.00 | 0.78 | 0.78 | 95 | 1001.4 |
| 20260506231411 | 44 | 91 | 1.7 | 6.1 | 0.00 | 0.78 | 0.78 | 95 | 1001.6 |
| 20260506230908 | 44 | 64 | 5.2 | 5.2 | 0.00 | 0.78 | 0.78 | 95 | 1001.5 |
| 20260506230405 | 44 | 327 | 2.6 | 4.3 | 0.00 | 0.78 | 0.78 | 95 | 1001.6 |
| 20260506225901 | 44 | 348 | 4.3 | 4.3 | 0.00 | 0.78 | 0.78 | 95 | 1001.5 |
| 20260506225359 | 44 | 329 | 4.3 | 5.2 | 0.00 | 0.78 | 0.78 | 95 | 1001.3 |
| 20260506224855 | 44 | 67 | 5.2 | 5.2 | 0.00 | 0.78 | 0.78 | 94 | 1001.5 |
| 20260506224353 | 44 | 81 | 3.5 | 3.5 | 0.00 | 0.78 | 0.78 | 94 | 1001.4 |
| 20260506223849 | 44 | 15 | 1.7 | 4.3 | 0.00 | 0.78 | 0.78 | 94 | 1001.2 |
| 20260506223344 | 44 | 348 | 2.6 | 4.3 | 0.00 | 0.78 | 0.78 | 94 | 1001.3 |
| 20260506222842 | 44 | 221 | 2.6 | 3.5 | 0.00 | 0.78 | 0.78 | 94 | 1001.1 |
| 20260506222337 | 44 | 253 | 2.6 | 4.3 | 0.00 | 0.78 | 0.78 | 95 | 1001.1 |
| 20260506221835 | 44 | 252 | 1.7 | 5.2 | 0.00 | 0.78 | 0.78 | 95 | 1001.0 |
| 20260506221332 | 44 | 347 | 4.3 | 7.8 | 0.00 | 0.78 | 0.78 | 95 | 1000.9 |
| 20260506220830 | 44 | 335 | 1.7 | 5.2 | 0.00 | 0.78 | 0.78 | 95 | 1001.0 |
| 20260506220325 | 45 | 97 | 1.7 | 6.1 | 0.00 | 0.78 | 0.78 | 95 | 1000.7 |
| 20260506215822 | 45 | 66 | 0.0 | 2.6 | 0.00 | 0.78 | 0.78 | 95 | 1001.0 |
| 20260506215318 | 45 | 299 | 4.3 | 11.3 | 0.00 | 0.78 | 0.78 | 95 | 1000.7 |
| 20260506214814 | 45 | 9 | 0.9 | 9.6 | 0.00 | 0.78 | 0.78 | 95 | 1000.8 |
| 20260506214311 | 45 | 357 | 3.5 | 7.8 | 0.00 | 0.78 | 0.78 | 96 | 1000.9 |
| 20260506213809 | 45 | 260 | 1.7 | 1.7 | 0.00 | 0.78 | 0.78 | 96 | 1000.9 |
| 20260506213306 | 45 | 39 | 2.6 | 3.5 | 0.00 | 0.78 | 0.78 | 96 | 1000.8 |
| 20260506212803 | 45 | 331 | 1.7 | 4.3 | 0.00 | 0.78 | 0.78 | 96 | 1000.8 |
| 20260506212259 | 45 | 10 | 2.6 | 3.5 | 0.02 | 0.78 | 0.78 | 96 | 1000.8 |
| 20260506211754 | 45 | 314 | 2.6 | 3.5 | 0.02 | 0.78 | 0.78 | 96 | 1000.7 |
| 20260506211251 | 45 | 3 | 1.7 | 4.3 | 0.00 | 0.77 | 0.77 | 96 | 1000.7 |
| 20260506210748 | 45 | 330 | 7.0 | 7.0 | 0.02 | 0.77 | 0.77 | 96 | 1000.7 |
| 20260506210244 | 45 | 317 | 0.9 | 6.1 | 0.07 | 0.77 | 0.77 | 96 | 1000.7 |
| 20260506205742 | 45 | 303 | 1.7 | 5.2 | 0.05 | 0.76 | 0.76 | 96 | 1000.6 |
| 20260506205237 | 45 | 295 | 1.7 | 4.3 | 0.19 | 0.76 | 0.76 | 95 | 1000.6 |
| 20260506204734 | 45 | 338 | 0.9 | 6.1 | 0.17 | 0.75 | 0.75 | 95 | 1000.6 |
| 20260506204232 | 45 | 338 | 3.5 | 8.7 | 0.05 | 0.73 | 0.73 | 95 | 1000.8 |
| 20260506203731 | 45 | 12 | 1.7 | 10.4 | 0.05 | 0.72 | 0.72 | 95 | 1000.7 |
| 20260506203227 | 45 | 334 | 5.2 | 8.7 | 0.05 | 0.72 | 0.72 | 95 | 1000.6 |
| 20260506202725 | 45 | 329 | 5.2 | 9.6 | 0.05 | 0.72 | 0.72 | 95 | 1000.5 |
| 20260506202221 | 45 | 187 | 1.7 | 7.0 | 0.02 | 0.71 | 0.71 | 95 | 1000.2 |
| 20260506201718 | 45 | 358 | 4.3 | 10.4 | 0.02 | 0.71 | 0.71 | 95 | 1000.4 |
| 20260506201215 | 46 | 6 | 2.6 | 7.0 | 0.02 | 0.71 | 0.71 | 95 | 1000.6 |
| 20260506200711 | 46 | 27 | 7.0 | 10.4 | 0.00 | 0.70 | 0.70 | 95 | 1000.5 |
| 20260506200208 | 46 | 2 | 2.6 | 6.1 | 0.00 | 0.70 | 0.70 | 95 | 1000.5 |
| 20260506195704 | 46 | 303 | 6.1 | 6.1 | 0.00 | 0.70 | 0.70 | 95 | 1000.5 |
| 20260506195201 | 46 | 46 | 4.3 | 5.2 | 0.05 | 0.70 | 0.70 | 95 | 1000.7 |
| 20260506194658 | 46 | 54 | 3.5 | 6.1 | 0.05 | 0.70 | 0.70 | 95 | 1000.6 |
| 20260506194154 | 46 | 334 | 2.6 | 6.1 | 0.02 | 0.70 | 0.70 | 95 | 1000.4 |
| 20260506193652 | 46 | 320 | 3.5 | 7.0 | 0.00 | 0.69 | 0.69 | 95 | 1000.6 |
| 20260506193149 | 47 | 279 | 4.3 | 4.3 | 0.00 | 0.69 | 0.69 | 95 | 1000.4 |
| 20260506192646 | 47 | 341 | 3.5 | 9.6 | 0.00 | 0.69 | 0.69 | 94 | 1000.6 |
| 20260506192142 | 47 | 70 | 1.7 | 5.2 | 0.00 | 0.69 | 0.69 | 94 | 1000.5 |
| 20260506191639 | 47 | 337 | 0.9 | 2.6 | 0.00 | 0.69 | 0.69 | 95 | 1000.5 |
| 20260506191135 | 47 | 40 | 5.2 | 6.1 | 0.00 | 0.69 | 0.69 | 94 | 1000.6 |
| 20260506190632 | 47 | 349 | 2.6 | 7.8 | 0.00 | 0.69 | 0.69 | 95 | 1000.6 |
| 20260506190129 | 47 | 305 | 3.5 | 7.0 | 0.00 | 0.69 | 0.69 | 95 | 1000.6 |
| 20260506185626 | 46 | 293 | 3.5 | 7.8 | 0.00 | 0.69 | 0.69 | 95 | 1000.5 |
| 20260506185122 | 46 | 104 | 1.7 | 7.8 | 0.00 | 0.69 | 0.69 | 96 | 1000.6 |
| 20260506184620 | 46 | 350 | 3.5 | 13.0 | 0.00 | 0.69 | 0.69 | 95 | 1000.7 |
| 20260506184117 | 46 | 321 | 1.7 | 9.6 | 0.02 | 0.69 | 0.69 | 96 | 1000.7 |
| 20260506183614 | 47 | 23 | 4.3 | 6.1 | 0.02 | 0.69 | 0.69 | 97 | 1000.6 |
| 20260506183109 | 46 | 232 | 0.9 | 5.2 | 0.05 | 0.69 | 0.69 | 97 | 1000.9 |
| 20260506182607 | 46 | 79 | 2.6 | 6.1 | 0.07 | 0.69 | 0.69 | 97 | 1000.9 |
| 20260506182104 | 46 | 288 | 5.2 | 9.6 | 0.07 | 0.68 | 0.68 | 96 | 1001.0 |
| 20260506181602 | 46 | 215 | 0.9 | 4.3 | 0.07 | 0.67 | 0.67 | 96 | 1001.3 |
| 20260506181059 | 46 | 115 | 3.5 | 5.2 | 0.09 | 0.67 | 0.67 | 96 | 1001.0 |
| 20260506180555 | 46 | 316 | 2.6 | 3.5 | 0.07 | 0.66 | 0.66 | 96 | 1001.0 |
| 20260506180052 | 47 | 267 | 5.2 | 5.2 | 0.07 | 0.65 | 0.65 | 96 | 1000.9 |
| 20260506175548 | 47 | 88 | 2.6 | 7.0 | 0.05 | 0.65 | 0.65 | 96 | 1001.2 |
| 20260506175045 | 47 | 313 | 3.5 | 5.2 | 0.07 | 0.64 | 0.64 | 96 | 1001.2 |
| 20260506174544 | 47 | 286 | 3.5 | 8.7 | 0.07 | 0.64 | 0.64 | 96 | 1001.2 |
| 20260506174039 | 47 | 352 | 1.7 | 11.3 | 0.09 | 0.63 | 0.63 | 96 | 1001.1 |
| 20260506173537 | 47 | 0 | 3.5 | 10.4 | 0.12 | 0.63 | 0.63 | 95 | 1001.5 |
| 20260506173034 | 48 | 308 | 8.7 | 11.3 | 0.17 | 0.61 | 0.61 | 95 | 1001.2 |
| 20260506172531 | 48 | 343 | 5.2 | 8.7 | 0.19 | 0.61 | 0.61 | 95 | 1001.3 |
| 20260506172027 | 50 | 330 | 8.7 | 11.3 | 0.14 | 0.59 | 0.59 | 93 | 1001.3 |
| 20260506171525 | 51 | 151 | 1.7 | 3.5 | 0.07 | 0.57 | 0.57 | 94 | 1001.1 |
| 20260506171022 | 54 | 311 | 10.4 | 10.4 | 0.05 | 0.56 | 0.56 | 91 | 1000.9 |
| 20260506170520 | 56 | 53 | 2.6 | 3.5 | 0.09 | 0.56 | 0.56 | 96 | 1001.2 |
| 20260506170017 | 56 | 36 | 5.2 | 5.2 | 0.21 | 0.55 | 0.55 | 96 | 1001.0 |
| 20260506165515 | 56 | 40 | 1.7 | 3.5 | 0.33 | 0.54 | 0.54 | 96 | 1001.0 |
| 20260506165011 | 56 | 155 | 1.7 | 4.3 | 0.33 | 0.52 | 0.52 | 95 | 1001.0 |
| 20260506164508 | 56 | 103 | 0.9 | 3.5 | 0.14 | 0.48 | 0.48 | 96 | 1000.9 |
| 20260506164006 | 56 | 28 | 1.7 | 5.2 | 0.09 | 0.47 | 0.47 | 96 | 1001.0 |
| 20260506163501 | 56 | 28 | 1.7 | 4.3 | 0.09 | 0.46 | 0.46 | 96 | 1000.8 |
| 20260506162956 | 56 | 126 | 5.2 | 7.8 | 0.09 | 0.45 | 0.45 | 95 | 1000.9 |
| 20260506162454 | 56 | 131 | 7.0 | 7.0 | 0.09 | 0.44 | 0.44 | 95 | 1001.1 |
| 20260506161945 | 56 | 57 | 3.5 | 6.1 | 0.07 | 0.43 | 0.43 | 96 | 1001.1 |
| 20260506161443 | 56 | 120 | 7.0 | 8.7 | 0.07 | 0.42 | 0.42 | 95 | 1001.2 |
| 20260506160935 | 56 | 138 | 7.8 | 9.6 | 0.02 | 0.42 | 0.42 | 96 | 1001.4 |
| 20260506160432 | 56 | 59 | 8.7 | 11.3 | 0.02 | 0.41 | 0.41 | 96 | 1001.3 |
| 20260506155929 | 56 | 89 | 3.5 | 6.1 | 0.05 | 0.41 | 0.41 | 96 | 1001.4 |
| 20260506155426 | 55 | 115 | 7.0 | 13.9 | 0.05 | 0.41 | 0.41 | 96 | 1001.5 |
| 20260506153548 | 55 | 61 | 4.3 | 5.2 | 0.07 | 0.39 | 0.39 | 97 | 1001.8 |
| 20260506153046 | 55 | 107 | 2.6 | 7.0 | 0.05 | 0.38 | 0.38 | 97 | 1001.8 |
| 20260506152543 | 55 | 109 | 0.9 | 7.8 | 0.07 | 0.38 | 0.38 | 97 | 1002.0 |
| 20260506152041 | 55 | 56 | 5.2 | 7.8 | 0.07 | 0.37 | 0.37 | 98 | 1001.7 |
| 20260506151539 | 55 | 72 | 3.5 | 5.2 | 0.07 | 0.37 | 0.37 | 98 | 1001.9 |
| 20260506151035 | 55 | 116 | 6.1 | 12.2 | 0.05 | 0.36 | 0.36 | 98 | 1001.8 |
| 20260506150532 | 55 | 151 | 7.8 | 8.7 | 0.07 | 0.35 | 0.35 | 98 | 1002.1 |
| 20260506150029 | 54 | 7 | 0.0 | 9.6 | 0.05 | 0.35 | 0.35 | 99 | 1002.3 |
| 20260506145525 | 54 | 96 | 1.7 | 3.5 | 0.05 | 0.34 | 0.34 | 99 | 1002.3 |
| 20260506145023 | 53 | 65 | 1.7 | 4.3 | 0.05 | 0.34 | 0.34 | 99 | 1002.2 |
| 20260506144519 | 53 | 61 | 6.1 | 6.1 | 0.05 | 0.34 | 0.34 | 99 | 1002.2 |
| 20260506144017 | 52 | 345 | 0.0 | 4.3 | 0.07 | 0.33 | 0.33 | 98 | 1002.3 |
| 20260506143514 | 52 | 63 | 5.2 | 11.3 | 0.07 | 0.32 | 0.32 | 98 | 1001.9 |
| 20260506143013 | 52 | 44 | 3.5 | 6.1 | 0.07 | 0.32 | 0.32 | 98 | 1002.0 |
| 20260506142510 | 52 | 50 | 5.2 | 6.1 | 0.05 | 0.31 | 0.31 | 98 | 1002.3 |
| 20260506142008 | 52 | 66 | 6.1 | 7.0 | 0.05 | 0.31 | 0.31 | 98 | 1002.4 |
| 20260506141506 | 52 | 64 | 4.3 | 5.2 | 0.07 | 0.30 | 0.30 | 98 | 1002.6 |
| 20260506141004 | 52 | 71 | 3.5 | 5.2 | 0.05 | 0.29 | 0.29 | 98 | 1002.4 |
| 20260506140501 | 52 | 351 | 1.7 | 1.7 | 0.07 | 0.29 | 0.29 | 98 | 1002.7 |
| 20260506135957 | 52 | 52 | 4.3 | 4.3 | 0.05 | 0.28 | 0.28 | 98 | 1002.8 |
| 20260506135455 | 51 | 83 | 2.6 | 4.3 | 0.05 | 0.28 | 0.28 | 98 | 1002.6 |
| 20260506134951 | 52 | 75 | 3.5 | 5.2 | 0.05 | 0.28 | 0.28 | 98 | 1002.6 |
| 20260506134447 | 52 | 73 | 3.5 | 4.3 | 0.05 | 0.27 | 0.27 | 98 | 1002.8 |
| 20260506133944 | 52 | 72 | 1.7 | 1.7 | 0.05 | 0.27 | 0.27 | 98 | 1002.8 |
| 20260506133441 | 51 | 56 | 0.9 | 3.5 | 0.05 | 0.26 | 0.26 | 98 | 1002.9 |
| 20260506132938 | 51 | 69 | 3.5 | 4.3 | 0.07 | 0.26 | 0.26 | 98 | 1002.6 |
| 20260506132435 | 51 | 58 | 2.6 | 3.5 | 0.05 | 0.25 | 0.25 | 98 | 1002.4 |
| 20260506131932 | 51 | 64 | 3.5 | 3.5 | 0.07 | 0.25 | 0.25 | 98 | 1002.5 |
| 20260506131428 | 51 | 68 | 2.6 | 3.5 | 0.05 | 0.24 | 0.24 | 98 | 1002.6 |
| 20260506130925 | 52 | 69 | 4.3 | 5.2 | 0.07 | 0.24 | 0.24 | 98 | 1002.8 |
| 20260506130422 | 52 | 61 | 5.2 | 5.2 | 0.07 | 0.23 | 0.23 | 98 | 1002.8 |
| 20260506125920 | 52 | 70 | 3.5 | 5.2 | 0.05 | 0.22 | 0.22 | 98 | 1002.9 |
| 20260506125418 | 52 | 73 | 3.5 | 4.3 | 0.05 | 0.22 | 0.22 | 98 | 1003.2 |
| 20260506124916 | 52 | 57 | 1.7 | 1.7 | 0.07 | 0.22 | 0.22 | 98 | 1003.3 |
| 20260506124413 | 52 | 69 | 3.5 | 4.3 | 0.07 | 0.21 | 0.21 | 98 | 1003.0 |
| 20260506123911 | 52 | 55 | 0.0 | 0.9 | 0.02 | 0.20 | 0.20 | 98 | 1002.9 |
| 20260506123409 | 52 | 75 | 2.6 | 4.3 | 0.02 | 0.20 | 0.20 | 98 | 1003.0 |
| 20260506122906 | 52 | 263 | 0.0 | 1.7 | 0.02 | 0.20 | 0.20 | 98 | 1003.2 |
| 20260506122402 | 52 | 48 | 0.9 | 2.6 | 0.02 | 0.20 | 0.20 | 98 | 1003.1 |
| 20260506121901 | 52 | 274 | 1.7 | 1.7 | 0.07 | 0.20 | 0.20 | 98 | 1003.3 |
| 20260506121357 | 51 | 56 | 5.2 | 5.2 | 0.02 | 0.19 | 0.19 | 98 | 1002.9 |
| 20260506120854 | 52 | 283 | 1.7 | 2.6 | 0.00 | 0.18 | 0.18 | 98 | 1003.2 |
| 20260506120352 | 51 | 69 | 0.0 | 2.6 | 0.00 | 0.18 | 0.18 | 98 | 1003.2 |
| 20260506115849 | 51 | 308 | 0.0 | 1.7 | 0.00 | 0.18 | 0.18 | 98 | 1003.3 |
| 20260506115347 | 52 | 305 | 0.0 | 1.7 | 0.00 | 0.18 | 0.18 | 98 | 1003.2 |
| 20260506114845 | 51 | 91 | 1.7 | 2.6 | 0.00 | 0.18 | 0.18 | 99 | 1002.9 |
| 20260506114342 | 51 | 53 | 2.6 | 3.5 | 0.00 | 0.18 | 0.18 | 99 | 1003.0 |
| 20260506113841 | 51 | 83 | 1.7 | 2.6 | 0.00 | 0.18 | 0.18 | 99 | 1003.1 |
| 20260506113338 | 51 | 100 | 2.6 | 3.5 | 0.00 | 0.18 | 0.18 | 99 | 1003.2 |
| 20260506112835 | 51 | 75 | 3.5 | 3.5 | 0.00 | 0.18 | 0.18 | 99 | 1003.1 |
| 20260506112332 | 51 | 72 | 1.7 | 3.5 | 0.00 | 0.18 | 0.18 | 99 | 1003.3 |
| 20260506111829 | 51 | 128 | 0.9 | 2.6 | 0.00 | 0.18 | 0.18 | 99 | 1003.4 |
| 20260506111328 | 51 | 85 | 1.7 | 2.6 | 0.00 | 0.18 | 0.18 | 99 | 1003.0 |
| 20260506110825 | 51 | 86 | 1.7 | 2.6 | 0.00 | 0.18 | 0.18 | 99 | 1003.2 |
| 20260506110322 | 51 | 77 | 2.6 | 3.5 | 0.00 | 0.18 | 0.18 | 99 | 1002.9 |
| 20260506105819 | 51 | 100 | 1.7 | 2.6 | 0.00 | 0.18 | 0.18 | 99 | 1003.2 |
| 20260506105315 | 51 | 82 | 1.7 | 2.6 | 0.00 | 0.18 | 0.18 | 99 | 1003.2 |
| 20260506104812 | 51 | 74 | 2.6 | 3.5 | 0.00 | 0.18 | 0.18 | 99 | 1003.2 |
| 20260506104310 | 51 | 296 | 0.0 | 2.6 | 0.00 | 0.18 | 0.18 | 99 | 1003.3 |
| 20260506103808 | 51 | 291 | 1.7 | 1.7 | 0.00 | 0.18 | 0.18 | 99 | 1003.3 |
| 20260506103305 | 51 | 65 | 0.0 | 1.7 | 0.00 | 0.18 | 0.18 | 99 | 1003.1 |
| 20260506102802 | 51 | 63 | 2.6 | 3.5 | 0.00 | 0.18 | 0.18 | 99 | 1003.0 |
| 20260506102300 | 51 | 60 | 4.3 | 5.2 | 0.00 | 0.18 | 0.18 | 99 | 1003.0 |
| 20260506101757 | 51 | 86 | 1.7 | 2.6 | 0.00 | 0.18 | 0.18 | 99 | 1003.4 |
| 20260506101253 | 51 | 66 | 1.7 | 1.7 | 0.00 | 0.18 | 0.18 | 99 | 1003.7 |
| 20260506100751 | 51 | 305 | 0.0 | 1.7 | 0.00 | 0.18 | 0.18 | 99 | 1003.6 |
| 20260506100249 | 51 | 110 | 1.7 | 1.7 | 0.00 | 0.18 | 0.18 | 99 | 1003.1 |
| 20260506095748 | 51 | 72 | 2.6 | 3.5 | 0.00 | 0.18 | 0.18 | 99 | 1003.3 |
| 20260506095244 | 51 | 75 | 0.0 | 0.9 | 0.00 | 0.18 | 0.18 | 99 | 1003.2 |
| 20260506094740 | 51 | 56 | 0.9 | 1.7 | 0.00 | 0.18 | 0.18 | 99 | 1003.6 |
| 20260506094239 | 51 | 284 | 0.0 | 1.7 | 0.00 | 0.18 | 0.18 | 98 | 1003.2 |
| 20260506093737 | 51 | 280 | 0.9 | 1.7 | 0.00 | 0.18 | 0.18 | 98 | 1003.3 |
| 20260506093234 | 51 | 78 | 1.7 | 2.6 | 0.00 | 0.18 | 0.18 | 98 | 1003.4 |
| 20260506092732 | 51 | 48 | 1.7 | 2.6 | 0.00 | 0.18 | 0.18 | 98 | 1003.7 |
| 20260506092230 | 51 | 29 | 0.9 | 1.7 | 0.00 | 0.18 | 0.18 | 98 | 1003.6 |
| 20260506091727 | 51 | 99 | 1.7 | 1.7 | 0.00 | 0.18 | 0.18 | 98 | 1003.9 |
| 20260506091224 | 51 | 271 | 0.0 | 1.7 | 0.00 | 0.18 | 0.18 | 98 | 1003.7 |
| 20260506090722 | 51 | 69 | 0.9 | 1.7 | 0.00 | 0.18 | 0.18 | 98 | 1003.4 |
| 20260506090218 | 51 | 46 | 0.9 | 0.9 | 0.00 | 0.18 | 0.18 | 98 | 1003.6 |
| 20260506085715 | 51 | 118 | 0.0 | 1.7 | 0.00 | 0.18 | 0.18 | 98 | 1003.6 |
| 20260506085211 | 51 | 78 | 1.7 | 2.6 | 0.00 | 0.18 | 0.18 | 98 | 1003.8 |
| 20260506084708 | 51 | 92 | 1.7 | 2.6 | 0.00 | 0.18 | 0.18 | 98 | 1003.9 |
| 20260506084204 | 51 | 80 | 0.9 | 2.6 | 0.00 | 0.18 | 0.18 | 98 | 1004.0 |
| 20260506083701 | 51 | 79 | 0.9 | 2.6 | 0.00 | 0.18 | 0.18 | 98 | 1004.1 |
| 20260506083159 | 51 | 85 | 1.7 | 3.5 | 0.00 | 0.18 | 0.18 | 98 | 1004.2 |
| 20260506082656 | 51 | 279 | 2.6 | 2.6 | 0.00 | 0.18 | 0.18 | 98 | 1004.2 |
| 20260506082156 | 51 | 309 | 0.0 | 1.7 | 0.00 | 0.18 | 0.18 | 98 | 1003.7 |
| 20260506081655 | 51 | 326 | 0.9 | 0.9 | 0.00 | 0.18 | 0.18 | 98 | 1003.6 |
| 20260506081152 | 51 | 276 | 0.0 | 1.7 | 0.00 | 0.18 | 0.18 | 98 | 1003.6 |
| 20260506080650 | 51 | 63 | 0.0 | 0.9 | 0.00 | 0.18 | 0.18 | 98 | 1003.7 |
| 20260506080146 | 51 | 64 | 0.9 | 2.6 | 0.00 | 0.18 | 0.18 | 98 | 1003.4 |
| 20260506073130 | 52 | 70 | 3.5 | 4.3 | 0.00 | 0.18 | 0.18 | 98 | 1003.3 |
| 20260506072627 | 52 | 62 | 3.5 | 5.2 | 0.00 | 0.18 | 0.18 | 98 | 1003.4 |
| 20260506072125 | 52 | 60 | 2.6 | 5.2 | 0.00 | 0.18 | 0.18 | 98 | 1003.6 |
| 20260506071622 | 52 | 55 | 2.6 | 3.5 | 0.00 | 0.18 | 0.18 | 98 | 1004.0 |
| 20260506071120 | 52 | 65 | 4.3 | 4.3 | 0.00 | 0.18 | 0.18 | 98 | 1003.6 |
| 20260506070616 | 52 | 312 | 1.7 | 1.7 | 0.00 | 0.18 | 0.18 | 97 | 1004.0 |
| 20260506070114 | 52 | 276 | 0.0 | 1.7 | 0.00 | 0.18 | 0.18 | 97 | 1003.9 |
| 20260506062051 | 52 | 72 | 1.7 | 2.6 | 0.02 | 0.18 | 0.18 | 97 | 1003.8 |
| 20260506061546 | 52 | 66 | 0.0 | 1.7 | 0.05 | 0.18 | 0.18 | 97 | 1003.9 |
| 20260506061044 | 53 | 85 | 2.6 | 3.5 | 0.14 | 0.18 | 0.18 | 97 | 1003.3 |
| 20260506060543 | 52 | 89 | 2.6 | 4.3 | 0.12 | 0.17 | 0.17 | 97 | 1003.7 |
| 20260506051011 | 53 | 314 | 0.0 | 4.3 | 0.00 | 0.04 | 0.04 | 94 | 1004.0 |
| 20260506050509 | 53 | 34 | 1.7 | 3.5 | 0.00 | 0.04 | 0.04 | 94 | 1004.0 |
| 20260506044959 | 54 | 125 | 0.9 | 2.6 | 0.02 | 0.04 | 0.04 | 92 | 1004.0 |
| 20260506044458 | 54 | 288 | 3.5 | 3.5 | 0.02 | 0.04 | 0.04 | 92 | 1004.0 |
| 20260506043954 | 54 | 284 | 2.6 | 6.1 | 0.00 | 0.04 | 0.04 | 92 | 1003.9 |
| 20260506043451 | 55 | 214 | 1.7 | 7.8 | 0.07 | 0.04 | 0.04 | 91 | 1003.7 |
| 20260506042949 | 55 | 276 | 7.8 | 9.6 | 0.14 | 0.04 | 0.04 | 92 | 1003.8 |
| 20260506042448 | 56 | 267 | 7.0 | 10.4 | 0.07 | 0.02 | 0.02 | 93 | 1004.2 |
| 20260506041946 | 55 | 280 | 7.8 | 13.0 | 0.05 | 0.01 | 0.01 | 97 | 1003.6 |
| 20260506041443 | 54 | 277 | 3.5 | 5.2 | 0.05 | 0.01 | 0.01 | 96 | 1003.7 |
| 20260506040941 | 54 | 334 | 0.0 | 2.6 | 0.00 | 0.00 | 0.00 | 96 | 1003.1 |
| 20260506040438 | 54 | 277 | 0.0 | 1.7 | 0.00 | 0.00 | 0.00 | 96 | 1003.0 |
| 20260506035934 | 54 | 304 | 0.0 | 1.7 | 0.00 | 0.12 | 0.12 | 96 | 1002.9 |
| 20260506035431 | 54 | 296 | 0.0 | 1.7 | 0.00 | 0.12 | 0.12 | 96 | 1002.6 |
| 20260506034928 | 54 | 339 | 0.9 | 1.7 | 0.00 | 0.12 | 0.12 | 95 | 1002.7 |
| 20260506034425 | 53 | 325 | 0.9 | 1.7 | 0.00 | 0.12 | 0.12 | 95 | 1002.6 |
| 20260506033922 | 54 | 315 | 0.0 | 1.7 | 0.00 | 0.12 | 0.12 | 95 | 1002.5 |
| 20260506033420 | 54 | 95 | 0.0 | 1.7 | 0.00 | 0.12 | 0.12 | 95 | 1002.2 |
| 20260506032917 | 54 | 322 | 0.9 | 1.7 | 0.00 | 0.12 | 0.12 | 94 | 1002.6 |
| 20260506032414 | 53 | 165 | 0.0 | 0.9 | 0.00 | 0.12 | 0.12 | 94 | 1002.5 |
| 20260506031910 | 54 | 60 | 0.0 | 1.7 | 0.00 | 0.12 | 0.12 | 93 | 1002.3 |
| 20260506031407 | 54 | 53 | 0.0 | 1.7 | 0.00 | 0.12 | 0.12 | 93 | 1002.6 |
| 20260506030905 | 54 | 63 | 1.7 | 1.7 | 0.00 | 0.12 | 0.12 | 93 | 1002.2 |
| 20260506030403 | 54 | 64 | 0.9 | 1.7 | 0.00 | 0.12 | 0.12 | 93 | 1002.3 |
| 20260506025859 | 54 | 64 | 0.9 | 0.9 | 0.00 | 0.12 | 0.12 | 93 | 1002.4 |
| 20260506025356 | 54 | 38 | 0.0 | 1.7 | 0.00 | 0.12 | 0.12 | 93 | 1002.6 |
| 20260506024853 | 54 | 282 | 0.0 | 1.7 | 0.00 | 0.12 | 0.12 | 93 | 1002.7 |
| 20260506024350 | 54 | 73 | 0.0 | 1.7 | 0.00 | 0.12 | 0.12 | 93 | 1002.4 |
| 20260506023846 | 54 | 80 | 0.0 | 1.7 | 0.00 | 0.12 | 0.12 | 93 | 1002.5 |
| 20260506023343 | 53 | 80 | 0.9 | 1.7 | 0.00 | 0.12 | 0.12 | 94 | 1002.3 |
| 20260506022840 | 53 | 96 | 0.9 | 0.9 | 0.00 | 0.12 | 0.12 | 94 | 1002.2 |
| 20260506022337 | 53 | 56 | 0.9 | 1.7 | 0.00 | 0.12 | 0.12 | 94 | 1002.4 |
| 20260506021835 | 53 | 14 | 0.0 | 0.0 | 0.00 | 0.12 | 0.12 | 94 | 1002.4 |
| 20260506021332 | 53 | 309 | 0.0 | 0.0 | 0.00 | 0.12 | 0.12 | 93 | 1002.3 |
| 20260506020828 | 54 | 55 | 0.0 | 0.0 | 0.00 | 0.12 | 0.12 | 93 | 1002.2 |
| 20260506020327 | 54 | 69 | 0.0 | 0.9 | 0.00 | 0.12 | 0.12 | 92 | 1002.4 |
| 20260506015824 | 54 | 358 | 0.9 | 1.7 | 0.00 | 0.12 | 0.12 | 93 | 1002.1 |
| 20260506015321 | 54 | 319 | 0.9 | 0.9 | 0.00 | 0.12 | 0.12 | 92 | 1002.1 |
| 20260506014817 | 54 | 304 | 0.0 | 0.0 | 0.00 | 0.12 | 0.12 | 92 | 1002.0 |
| 20260506014314 | 55 | 287 | 0.0 | 1.7 | 0.00 | 0.12 | 0.12 | 91 | 1001.9 |
| 20260506013811 | 55 | 115 | 0.9 | 1.7 | 0.00 | 0.12 | 0.12 | 91 | 1002.1 |
| 20260506013309 | 55 | 63 | 0.0 | 0.0 | 0.00 | 0.12 | 0.12 | 90 | 1002.0 |
| 20260506012805 | 56 | 108 | 0.0 | 1.7 | 0.00 | 0.12 | 0.12 | 89 | 1002.1 |
| 20260506012307 | 56 | 29 | 0.0 | 0.9 | 0.00 | 0.12 | 0.12 | 89 | 1001.9 |
| 20260506011759 | 57 | 297 | 0.9 | 1.7 | 0.00 | 0.12 | 0.12 | 87 | 1002.0 |
| 20260506011255 | 57 | 135 | 0.0 | 0.9 | 0.00 | 0.12 | 0.12 | 86 | 1002.0 |